This is the latest recevied weather packets stored in our database for station/object W1HS. If no packets are shown the sender has not sent any weather packets the latest 10 day(s).
| Time | Temp. | Humidity | Pressure | Rain* | Wind** | Luminosity | Snow |
|---|---|---|---|---|---|---|---|
| 1777830440 | 8.89° C | 43% | 987.1 hPa | 0 mm | - | 353 W/m² | - |
| 1777829970 | 8.33° C | 42% | 987.1 hPa | 0 mm | - | 431 W/m² | - |
| 1777829241 | 8.33° C | 46% | 987.2 hPa | 0 mm | - | 443 W/m² | - |
| 1777828725 | 8.89° C | 43% | 987.1 hPa | 0 mm | - | 526 W/m² | - |
| 1777827562 | 8.89° C | 44% | 987.1 hPa | 0 mm | - | 380 W/m² | - |
| 1777827166 | 8.33° C | 47% | 987.1 hPa | 0 mm | - | 468 W/m² | - |
| 1777826899 | 8.33° C | 45% | 987.1 hPa | 0 mm | - | 473 W/m² | - |
| 1777826305 | 8.33° C | 44% | 987.2 hPa | 0 mm | - | 469 W/m² | - |
| 1777825768 | 8.33° C | 53% | 987.3 hPa | 0 mm | - | 272 W/m² | - |
| 1777825220 | 8.33° C | 51% | 987.4 hPa | 0 mm | - | 195 W/m² | - |
| 1777824623 | 8.33° C | 56% | 987.5 hPa | 0 mm | - | 326 W/m² | - |
| 1777824024 | 7.78° C | 56% | 987.6 hPa | 0 mm | - | 429 W/m² | - |
| 1777823420 | 7.22° C | 59% | 987.6 hPa | 0 mm | - | 318 W/m² | - |
| 1777822820 | 7.22° C | 56% | 987.7 hPa | 0 mm | - | 227 W/m² | - |
| 1777822220 | 6.67° C | 61% | 987.7 hPa | 0 mm | - | 200 W/m² | - |
| 1777821619 | 6.67° C | 61% | 987.7 hPa | 0 mm | - | 185 W/m² | - |
| 1777821023 | 6.67° C | 61% | 987.8 hPa | 0 mm | - | 179 W/m² | - |
| 1777820420 | 6.67° C | 61% | 987.8 hPa | 0 mm | - | 147 W/m² | - |
| 1777819819 | 6.67° C | 58% | 987.9 hPa | 0 mm | - | 113 W/m² | - |
| 1777819220 | 7.22° C | 62% | 987.9 hPa | 0 mm | - | 118 W/m² | - |
| 1777818618 | 7.78° C | 60% | 987.9 hPa | 0 mm | - | 183 W/m² | - |
| 1777818019 | 7.78° C | 64% | 988 hPa | 0 mm | - | 229 W/m² | - |
| 1777817419 | 7.22° C | 65% | 988 hPa | 0 mm | - | 380 W/m² | - |
| 1777816819 | 7.22° C | 68% | 988.1 hPa | 0 mm | - | 348 W/m² | - |
| 1777816219 | 6.67° C | 71% | 988.2 hPa | 0 mm | - | 307 W/m² | - |
* Rain latest hour (hover to see other rain measurements)
** Current wind speed in m/s (hover to see current wind gust speed)